Location: Pallagorio
(39.3000°N, 16.9000°E)
Time: 21:55:14
(UTC+00:00)

Cosmos 1538 Rocket - Pass Details

Date: 24 January 2021
Orbit: 753 x 791 km, 74.0° (Epoch: 03 March)

Event Time Altitude Azimuth Distance (km) Brightness Sun altitude
Rises 16:28:57 0° 342° (NNW) 3,212 7.2 -5.4°
Reaches altitude 10° 16:31:19 10° 343° (NNW) 2,283 6.4 -5.8°
Maximum altitude 16:36:30 83° 72° (ENE) 764 4.0 -6.7°
Drops below altitude 10° 16:41:40 10° 160° (SSE) 2,276 6.4 -7.7°
Sets 16:44:02 0° 161° (SSE) 3,201 7.2 -8.1°
